#timestamp,LO_Frequency,Hit 
1502715615.6,286046999.6,N
1502715635.4,286047001.0,N
1502715655.2,286046998.8,N
1502715675.1,286046999.1,N
1502715676.0,286046999.1,N
1502715695.8,286046999.3,N
1502715715.6,286046995.5,N
1502715735.5,286046994.7,N
1502715755.3,286046992.5,N
1502715775.1,286046993.1,N
1502715795.8,286046987.6,N
1502715815.7,286046984.2,P
1502715835.5,286046983.2,N
1502715855.4,286046979.2,N
1502715875.2,286046981.9,N
1502715895.0,286046981.2,N
1502715895.9,286046981.2,N
1502715915.8,286046981.6,N
1502715935.6,286046980.0,P
1502715955.4,286046993.8,P
1502715975.3,286046995.8,N
1502715995.1,286046993.4,N
1502715996.0,286046993.4,N
1502716015.8,286046993.0,N
1502716035.7,286046993.9,N
1502716055.5,286046994.9,N
1502716075.3,286046997.8,N
1502716095.2,286046998.1,N
1502716115.9,286046999.1,N
1502716135.7,286046995.0,N
1502716155.6,286046997.8,N
1502716175.4,286046999.6,N
1502716195.2,286047001.0,N
1502716215.0,286046997.0,N
1502716215.9,286046997.0,N
1502716235.8,286046997.1,N
1502716255.6,286046996.5,N
1502716275.4,286046996.2,N
1502716295.3,286046997.3,N
1502716315.1,286046998.8,N
1502716335.8,286046998.6,N
1502716355.7,286046999.6,N
1502716375.5,286046995.0,N
1502716395.3,286046995.6,N
1502716415.2,286046991.9,N
1502716435.9,286046991.0,N
1502716455.7,286046988.0,N
1502716475.6,286046989.1,N
1502716495.4,286046990.9,N
1502716515.2,286046993.9,N
1502716535.1,286046996.7,N
1502716536.0,286046996.7,N
1502716555.8,286047000.3,N
1502716575.6,286046999.9,N
1502716595.5,286047002.0,N
1502716615.3,286047006.0,N
1502716635.1,286047008.0,N
1502716655.8,286047009.3,N
1502716675.7,286047011.4,N
1502716695.5,286047009.6,N
1502716715.3,286047008.4,N
1502716735.2,286047003.1,N
1502716755.9,286046999.8,N
1502716775.7,286046996.5,N
1502716795.6,286046993.4,N
1502716815.4,286046995.6,N
1502716835.2,286046996.0,N
1502716855.1,286046993.3,N
1502716856.0,286046993.3,N
1502716875.8,286046993.9,N
1502716895.6,286046991.8,N
1502716915.5,286046993.5,N
1502716935.3,286046995.7,N
1502716955.1,286046995.4,N
1502716975.9,286046999.2,N
1502716995.7,286046999.7,N
1502717015.5,286047006.2,N
1502717035.4,286047009.8,N
1502717055.2,286047014.5,N
1502717075.0,286047018.2,N
1502717075.9,286047018.2,N
1502717095.7,286047022.9,N
1502717115.6,286047023.1,N
1502717135.4,286047021.6,N
1502717155.2,286047020.1,N
1502717175.1,286047012.9,N
1502717176.0,286047012.9,N
1502717195.8,286047009.8,N
1502717215.6,286047010.4,N
1502717235.5,286047005.7,N
1502717255.3,286047003.0,N
1502717275.1,286047005.8,N
1502717295.9,286047000.0,N
1502717315.7,286046998.4,N
1502717335.5,286046997.7,N
1502717355.4,286046992.9,N
1502717375.2,286046990.8,N
1502717395.0,286046989.6,N
1502717395.9,286046989.6,N
1502717415.8,286046987.0,N
1502717435.6,286046987.0,N
1502717455.4,286046987.8,N
1502717475.3,286046988.3,N
1502717495.1,286046987.6,N
1502717496.0,286046987.6,N
1502717515.8,286046991.6,N
1502717535.7,286046990.6,N
1502717555.5,286046994.3,N
1502717575.3,286046991.7,N
1502717595.1,286046990.9,N
1502717615.9,286046990.3,N
1502717635.7,286046988.6,N
1502717655.5,286046990.9,N
1502717675.4,286046989.2,N
1502717695.2,286046989.9,N
1502717715.0,286046989.1,N
1502717715.9,286046989.1,N
1502717735.8,286046990.3,N
1502717755.6,286046991.8,N
1502717775.4,286046993.5,N
1502717795.3,286046996.3,N
1502717815.1,286046995.6,N
1502717816.0,286046995.6,N
1502717835.8,286046996.3,N
1502717855.7,286046995.8,N
1502717875.5,286046994.1,N
1502717895.3,286046994.3,N
1502717915.2,286046993.2,N
1502717935.9,286046991.0,P
1502717955.7,286047002.3,P
1502717975.6,286047002.4,N
1502717995.4,286047000.2,N
1502718015.2,286047003.7,N
1502718035.0,286047007.5,N
1502718036.0,286047007.5,N
1502718055.8,286047008.5,N
1502718075.6,286047009.1,N
1502718095.4,286047010.7,N
1502718115.3,286047010.3,N
1502718135.1,286047011.2,N
1502718155.8,286047011.3,N
1502718175.7,286047011.9,N
1502718195.5,286047009.9,N
1502718215.3,286047007.0,N
1502718235.2,286047003.1,N
1502718255.9,286047002.5,N
1502718275.7,286047000.5,N
1502718295.6,286046999.0,N
1502718315.4,286046998.0,N
1502718335.2,286046994.7,N
1502718355.1,286046988.6,N
1502718356.0,286046988.6,N
1502718375.8,286046988.4,N
1502718395.6,286046983.9,N
1502718415.4,286046984.1,N
1502718435.3,286046982.1,N
1502718455.1,286046982.5,N
1502718475.8,286046986.7,N
1502718495.7,286046986.1,N
1502718515.5,286046989.3,N
1502718535.3,286046995.6,N
1502718555.2,286046996.6,N
1502718575.9,286046996.7,N
1502718595.7,286046998.7,N
1502718615.6,286046999.3,N
1502718635.4,286046999.4,N
1502718655.2,286046997.1,N
1502718675.1,286046997.0,N
1502718676.0,286046997.0,N
1502718695.8,286046995.6,N
1502718715.6,286046991.9,N
1502718735.5,286046990.2,N
1502718755.3,286046992.8,N
1502718775.1,286046989.2,N
1502718795.9,286046988.2,N
1502718815.7,286046991.6,N
1502718835.5,286046990.9,N
1502718855.3,286046994.0,N
1502718875.2,286046996.2,N
1502718895.0,286046997.8,N
1502718895.9,286046997.8,N
1502718915.7,286046999.4,N
1502718935.6,286047001.8,N
1502718955.4,286047004.7,N
1502718975.2,286047006.5,N
1502718995.1,286047006.9,N
1502718996.0,286047006.9,N
1502719015.8,286047008.7,N
1502719035.6,286047010.1,N
1502719055.5,286047011.2,N
1502719075.3,286047013.7,N
1502719095.1,286047015.4,N
1502719115.9,286047014.5,N
1502719135.7,286047015.7,N
1502719155.5,286047017.6,N
1502719175.4,286047017.6,N
1502719195.2,286047017.1,N
